086 
ASUS46 KSEW 090710
RWRWA 

WASHINGTON REGIONAL WEATHER ROUNDUP
NATIONAL WEATHER SERVICE SEATTLE WA
1100 PM PST MON FEB 08 2016

NOTE:"FAIR" INDICATES FEW OR NO CLOUDS BELOW 12,000 FEET WITH NO 
SIGNIFICANT WEATHER AND/OR OBSTRUCTIONS TO VISIBILITY.

WAZ505-507>509-090800-
SEATTLE, TACOMA, EVERETT, AND VICINITY
  
CITY           SKY/WX    TMP DP  RH WIND       PRES   REMARKS
EVERETT        CLEAR     44  41  89 N6        30.30F                  
BOEING FIELD   CLEAR     45  42  89 CALM      30.29F                  
RENTON         CLEAR     49  44  83 NW9       30.28S                  
SEATAC AIRPORT CLEAR     47  42  83 N9        30.28F                  
JBLM-MCCHORD   CLEAR     36  36 100 CALM      30.27S FOG              
PUYALLUP       FAIR      37  37 100 CALM      30.27S FOG              
BREMERTON      CLEAR     48  45  87 NE9       30.32R                  
JBLM-FT LEWIS  FOG       37  37 100 CALM      30.27S VSB 1            
TACOMA NARROWS CLEAR     47  43  86 N9        30.28F                  
$$
 
WAZ001-503-506-510-514-515-090800-
NORTH INTERIOR
  
CITY           SKY/WX    TMP DP  RH WIND       PRES   REMARKS
BELLINGHAM     CLEAR     37  36  96 CALM      30.31F FOG              
FRIDAY HARBOR  CLEAR     46  42  86 VRB3      30.32F                  
EASTSOUND      CLEAR     46  45  93 N7        30.32F                  
PORT ANGELES   CLEAR     40  39  97 CALM      30.32F                  
EDIZ HOOK      FAIR      44  42  94 SE5       30.33F                  
PORT TOWNSEND  FOG       37  37 100 CALM      30.32F VSB 3/4          
NAS WHIDBEY    CLEAR     40  40 100 SE3       30.36F                  
ARLINGTON      PTCLDY    37  34  87 CALM      30.32F                  
BURLINGTON     CLEAR     45  43  93 NW10      30.31F                  
$$
 
WAZ020-022-039-040-504-511-512-090800-
SOUTHWEST INTERIOR
  
CITY           SKY/WX    TMP DP  RH WIND       PRES   REMARKS
SHELTON        PTCLDY    39  37  92 CALM      30.25F FOG              
OLYMPIA        CLEAR     36  35  96 SE3       30.27S FOG              
CHEHALIS       FAIR      41  41 100 CALM      30.26S                  
KELSO          CLEAR     41  37  87 CALM      30.28S                  
VANCOUVER      CLEAR     39  37  92 CALM      30.25F                  
SCAPPOOSE, OR  CLEAR     41  40  96 W5        30.25F                  
PORTLAND, OR   CLEAR     51  37  58 SE6       30.25F                  
$$
 
WAZ021-516-517-090800-
WASHINGTON COAST
  
CITY           SKY/WX    TMP DP  RH WIND       PRES   REMARKS
FORKS          CLEAR     55  42  61 NE10      30.17F                  
HOQUIAM        CLEAR     54  45  71 NE12      30.17F                  
ASTORIA, OR    CLEAR     54  45  71 E9        30.16R                  
$$
 
WAZ019-023-024-040-518-519-090800-
CASCADE MOUNTAINS AND COLUMBIA GORGE
  
CITY           SKY/WX    TMP DP  RH WIND       PRES   REMARKS
STAMPEDE PASS  NOT AVBL                                               
TROUTDALE, OR  CLEAR     51  36  56 E31G44    30.25F                  
THE DALLES, OR CLEAR     37  32  82 E6        30.54F                  
$$

WAZ026-027-041>044-520-521-090800-
EAST SLOPES
  
CITY           SKY/WX    TMP DP  RH WIND       PRES   REMARKS
OMAK           CLEAR     25  22  88 CALM      30.58S                  
WENATCHEE      CLEAR     32  27  81 W8        30.56S                  
ELLENSBURG     CLEAR     29  25  85 CALM      30.52F                  
YAKIMA         CLEAR     34  28  79 W7        30.53S                  
$$

WAZ028-034-035-090800-
COLUMBIA BASIN
  
CITY           SKY/WX    TMP DP  RH WIND       PRES   REMARKS
EPHRATA        CLEAR     37  29  72 NW8       30.52F                  
MOSES LAKE     CLEAR     34  29  82 N7        30.53F                  
PASCO          CLEAR     31  28  89 CALM      30.55S                  
HERMISTON, OR  CLEAR     32  31  96 S5        30.52F                  
$$

WAZ036>038-090800-
NORTHEAST WASHINGTON
  
CITY           SKY/WX    TMP DP  RH WIND       PRES   REMARKS
SPOKANE GEIGER PTCLDY    33  29  85 NE6       30.51S                  
SPOKANE FELTS  PTCLDY    33  30  88 CALM      30.53F                  
FAIRCHILD AFB  PTCLDY    35  30  83 NE5       30.50S                  
COEURDALENE,ID CLEAR     32  27  80 NE7       30.51S                  
DEER PARK      PTCLDY    33  28  81 N5        30.53S                  
$$

WAZ029>033-090800-
SOUTHEAST WASHINGTON
  
CITY           SKY/WX    TMP DP  RH WIND       PRES   REMARKS
PULLMAN        PTCLDY    42  33  70 E9        30.50F                  
LEWISTON, ID   PTCLDY    45  35  68 E12       30.50F                  
WALLA WALLA    CLEAR     36  33  89 E6        30.50F                  
PENDLETON, OR  CLEAR     34  32  92 SE3       30.49F                  
$$